全部
Boggabri Airport YBOG 天氣
There is no TAF data available at YBOG or any nearby airports.
There is no METAR data available at YBOG. Showing METAR data for YGDH (21 mi SE).
GUH近期METAR歷史資料(YBOG無資料)
| Date | Time (AEST) | Flight Rules | Wind Dir. | Speed | Type | Height AGL (ft) | Visibility | Temp (°C) | Temp (°F) | Dew Point (°C) | Dew Point (°F) | Rel. Humid. | Pressure | Density Altitude | Remarks |
|---|---|---|---|---|---|---|---|---|---|---|---|---|---|---|---|
| 04-五月 | 06:00 | n/a | 150° | 5 kt | Missing | 14° | 57° | 10° | 50° | 77% | 1017 mb | 631 ft | |||
| 04-五月 | 05:00 | n/a | 140° | 5 kt | Missing | 14° | 57° | 9° | 48° | 72% | 1017 mb | 631 ft | |||
| 04-五月 | 04:00 | n/a | 160° | 6 kt | Missing | 14° | 57° | 9° | 48° | 72% | 1017 mb | 631 ft | |||
| 04-五月 | 03:00 | n/a | 160° | 5 kt | Missing | 13° | 55° | 8° | 46° | 72% | 1017 mb | 511 ft | |||
| 04-五月 | 02:00 | n/a | 150° | 4 kt | Missing | 12° | 53° | 8° | 46° | 76% | 1018 mb | 361 ft | |||
| 04-五月 | 01:00 | n/a | 160° | 6 kt | Missing | 13° | 55° | 8° | 46° | 72% | 1018 mb | 481 ft | |||
| 04-五月 | 00:00 | n/a | 140° | 6 kt | Missing | 13° | 55° | 7° | 44° | 67% | 1018 mb | 481 ft | |||
| 03-五月 | 23:00 | n/a | 190° | 4 kt | Missing | 13° | 55° | 7° | 44° | 67% | 1019 mb | 452 ft | |||
| 03-五月 | 22:00 | n/a | 310° | 2 kt | Missing | 13° | 55° | 6° | 42° | 62% | 1019 mb | 452 ft | |||
| 03-五月 | 21:00 | n/a | 80° | 4 kt | Missing | 14° | 57° | 7° | 44° | 63% | 1018 mb | 601 ft | |||
| 03-五月 | 20:00 | n/a | 50° | 3 kt | Missing | 15° | 59° | 7° | 44° | 59% | 1018 mb | 721 ft | |||
| 03-五月 | 19:00 | n/a | 110° | 3 kt | Missing | 16° | 60° | 6° | 42° | 51% | 1017 mb | 871 ft | |||
| 03-五月 | 18:00 | n/a | 120° | 3 kt | Missing | 19° | 66° | 6° | 42° | 43% | 1017 mb | 1,231 ft | |||
| 03-五月 | 17:00 | n/a | 120° | 5 kt | Missing | 24° | 75° | 6° | 42° | 31% | 1017 mb | 1,831 ft | |||
| 03-五月 | 16:00 | n/a | 60° | 2 kt | Missing | 27° | 80° | 7° | 44° | 28% | 1017 mb | 2,191 ft | |||
| 03-五月 | 15:00 | n/a | 50° | 5 kt | Missing | 27° | 80° | 8° | 46° | 30% | 1017 mb | 2,191 ft | |||
| 03-五月 | 14:00 | n/a | 120° | 5 kt | Missing | 28° | 82° | 9° | 48° | 30% | 1018 mb | 2,281 ft | |||
| 03-五月 | 13:00 | n/a | 100° | 7 kt | Missing | 26° | 78° | 8° | 46° | 32% | 1019 mb | 2,012 ft | |||
| 03-五月 | 12:00 | n/a | 90° | 9 kt | Missing | 26° | 78° | 8° | 46° | 32% | 1020 mb | 1,982 ft | |||
| 03-五月 | 11:00 | n/a | 50° | 6 kt | Missing | 25° | 77° | 9° | 48° | 36% | 1021 mb | 1,833 ft | Wind gusting to 16 KT | ||
| 03-五月 | 10:00 | n/a | 90° | 8 kt | Missing | 23° | 73° | 10° | 50° | 44% | 1022 mb | 1,563 ft | |||
| 03-五月 | 09:00 | n/a | 100° | 10 kt | Missing | 21° | 69° | 10° | 50° | 49% | 1022 mb | 1,323 ft | |||
| 03-五月 | 08:00 | n/a | 130° | 8 kt | Missing | 18° | 64° | 10° | 50° | 59% | 1022 mb | 963 ft | |||
| 03-五月 | 07:00 | n/a | 120° | 8 kt | Missing | 16° | 60° | 10° | 50° | 68% | 1021 mb | 753 ft |
登入
| 您的瀏覽器不支援. 升級您的瀏覽器 |
